Showing default

SWIFT, 28485

Orbit data source: Space-Track

SWIFT, 28485 is a payload satellite owned by GSFC (US) in LEO that was launched on Sat, 20 Nov 2004 UTC via a DELTA 7320-10C launch vehicle from the Air Force Eastern Test Range (AFETR). Payload-class satellites include a variety of spacecraft equipped with specific instruments for various scientific and technological missions. These include communications satellites like Starlink; space stations such as the ISS; scientific satellites like the Hubble; Earth observation satellites from companies like Planet Labs, Umbra, and HawkEye 360; GPS; miniature CubeSats for education and research; and military/defense satellites.

Not visible in the next 10 days
Identifier
28485, 2004-047A
Orbit
LEO
Country
Flag of USUS
Related business
Manufacturer
GD C4 Systems
Mission
Operational Civil Astronomy
Bus & Motor
SA-200HP, Unknown motor
Mass
1,470 kg wet, 1,470 kg dry
Launch date (UTC)
2004-11-20 (21 years ago)
Launch vehicle
DELTA 7320-10C
Launch site
Air Force Eastern Test Range (AFETR)
Object type
Payload
Rocket body
Debris
Shape & HBR
Cyl + 2 Pan, 2.8 m
Radar Cross Section
6.084 m², Large (>1 m²)

Expand to show TLE details & history
Last TLE update: 13 hours ago

TLE from 13 hours ago
0 SWIFT
1 28485U 04047A   25261.13740250  .00027946  00000-0  60300-3 0  9990
2 28485  20.5544  83.4754 0004091 175.0723 184.9759 15.42586845144447
Epoch: 2025-09-18T03:17Z
TLE epoch observation values (Epoch: 2025-09-18T03:17:51.576Z)
Latitude
0.00001°
Longitude
36.70722°
Altitude
438.831 km
Speed
7.65 km/s
True Right ascension
05h 33m 54s
True Declination
0° 00' 00"
Sunlit
Object was in daylight at epoch
Visualization orbit readout
Latitude
Unknown
Longitude
Unknown
Altitude
Unknown
Speed
Unknown
Apparent Right ascension
Unknown
Apparent Declination
Unknown
Sunlit
N/A
Visualization observer readout
Local Sidereal Time
09:20:27
Azimuth
Unknown
Elevation
Unknown
Doppler factor
Unknown
Orbital elements
Apogee altitude
446.542 km
Perigee altitude
440.961 km
Semi-major axis
6,821.888 km
Eccentricity
0.00041
Inclination
20.5544°
RAAN
83.4754°
Arg. of periapsis
175.0723°
True anomaly
184.97184°
Mean anomaly
184.9759°
Eccentric anomaly
184.97387°
Mean motion
3.852 °/min
Orbital period
93.46 mins
BSTAR
0.000603
Loading maneuver chart data...
Computing Atmospheric mass density...
Loading historical data...
Loading historical data...
Loading historical data...
Loading historical data...
Loading historical data...
Loading historical data...
Loading historical data...
Other satellites on launch #47 in the year 2004 (2004-11-20 UTC)

Documentation

Showing up to 5 results
|